Preview of NWS' New Version of Forecast
This preview is not operational and should not be used for support decisions.

Regional Weather Roundup (RWR)

Issued by National Weather Service (NWS)

                            
000
ASUS43 KMKX 182311
RWRWI 

WISCONSIN REGIONAL WEATHER ROUNDUP
NATIONAL WEATHER SERVICE MILWAUKEE/SULLIVAN WI
600 PM CDT SUN AUG 18 2019

NOTE: "FAIR" INDICATES FEW OR NO CLOUDS BELOW 12,000 FEET WITH NO
SIGNIFICANT WEATHER AND/OR OBSTRUCTIONS TO VISIBILITY.

WIZ001-002-006>008-014>016-023>028-190000-
NORTHWEST WISCONSIN
  
CITY           SKY/WX    TMP DP  RH WIND       PRES   REMARKS
SUPERIOR ARPT  FAIR      71  46  40 NW12      29.81R                  
ASHLAND        FAIR      72  48  42 W13       29.80R                  
HAYWARD        FAIR      72  47  40 VRB6      29.83R                  
SIREN          FAIR      72  47  41 W10       29.85S                  
CUMBERLAND     FAIR      68  48  49 NW6       29.85S                  
RICE LAKE      FAIR      71  50  47 W5        29.86S                  
CHETEK         FAIR      72  52  49 NW5       29.85S                  
LADYSMITH      FAIR      72  55  54 W13G18    29.85R                  
EAU CLAIRE     FAIR      73  54  51 W13       29.84R                  
MENOMONIE      FAIR      69  52  54 W10       29.86R                  
NEW RICHMOND   FAIR      71  48  43 NW10      29.86S                  
OSCEOLA        FAIR      72  51  48 W7        29.88S                  
$$
 
WIZ003>005-009-010-017-018-190000-
NORTH CENTRAL WISCONSIN
  
CITY           SKY/WX    TMP DP  RH WIND       PRES   REMARKS
MANITOWISH WTR FAIR      68  52  57 W12       29.81S                  
ARBOR VITAE    FAIR      72  56  57 NW9       29.81R                  
WOODRUFF       FAIR      72  56  57 NW9       29.81R                  
RHINELANDER    FAIR      71  56  58 W12G18    29.81R                  
EAGLE RIVER    FAIR      69  55  60 NW8       29.81R                  
LAND O LAKES   FAIR      68  54  60 NW9       29.82R                  
PHILLIPS       FAIR      69  54  58 W6        29.82R                  
TOMAHAWK       FAIR      71  56  60 W7G18     29.82R                  
MEDFORD        FAIR      69  57  65 W12G17    29.83R                  
MERRILL        PTSUNNY   73  60  63 NW7G18    29.82R                  
$$
 
WIZ029-030-035-036-043>047-190000-
CENTRAL WISCONSIN
  
CITY           SKY/WX    TMP DP  RH WIND       PRES   REMARKS
WAUSAU         FAIR      74  59  59 W13G26    29.80R                  
MOSINEE        MOSUNNY   73  59  60 W13G22    29.83R                  
MARSHFIELD     FAIR      74  60  61 W12G21    29.82R                  
STEVENS POINT  FAIR      74  59  61 W14       29.83R                  
WAUPACA        FAIR      78  60  53 W13G20    29.81R HX  80           
WAUTOMA        FAIR      76  62  62 W12G18    29.83R                  
WISC RAPIDS    FAIR      76  62  62 W7        29.83R                  
CAMP DOUGLAS   FAIR      74  64  70 W7        29.83R                  
$$
 
WIZ011>013-019>022-031-037>040-048>050-190000-
NORTHEAST WISCONSIN
  
CITY           SKY/WX    TMP DP  RH WIND       PRES   REMARKS
ANTIGO         FAIR      72  59  62 W13G22    29.81R                  
SHAWANO        FAIR      78  63  59 W8G16     29.77S HX  80           
OCONTO         FAIR      77  62  58 W16G24    29.75R                  
STURGEON BAY   FAIR      76  64  66 W16       29.76R                  
GREEN BAY      FAIR      77  63  61 W12G23    29.78R                  
MANITOWOC      FAIR      76  63  64 W14       29.81R                  
APPLETON       MOSUNNY   75  55  50 W17G24    29.79S                  
CLINTONVILLE   FAIR      77  59  53 W8        29.79R                  
OSHKOSH        FAIR      76  62  62 W9        29.81R                  
$$
 
WIZ032>034-041-042-053>061-190000-
SOUTHWEST WISCONSIN
  
CITY           SKY/WX    TMP DP  RH WIND       PRES   REMARKS
LA CROSSE      FAIR      79  59  50 NW14      29.83R HX  80           
SPARTA         FAIR      76  60  58 W13       29.85R                  
VIROQUA        FAIR      75  65  71 W7        29.87R                  
BOSCOBEL       FAIR      80  63  55 W6        29.85R HX  81           
PRAIRIE DU CHI CLOUDY    78  62  56 SW3       29.85R HX  80           
PLATTEVILLE    FAIR      77  68  73 SW6       29.88S                  
$$

WIZ056-057-062-063-064-067-068-190000-
SOUTH CENTRAL WISCONSIN
  
CITY           SKY/WX    TMP DP  RH WIND       PRES   REMARKS
REEDSBURG      PTSUNNY   76  63  64 W6        29.85R                  
BARABOO/DELLS  FAIR      75  61  62 W6        29.86R                  
LONE ROCK      PTSUNNY   77  63  61 SW3       29.85R                  
MINERAL POINT  FAIR      79  68  69 S5        29.88S HX  81           
MADISON        PTSUNNY   78  62  57 VRB3      29.85S HX  80           
MIDDLETON      PTSUNNY  N/A N/A N/A W6        29.87S                  
WATERTOWN      FAIR      76  64  65 W7        29.86R                  
MONROE         FAIR      76  63  63 SW7       29.87F                  
JANESVILLE     PTSUNNY   79  64  61 W7        29.87R HX  81           
$$
 
WIZ051-052-058>065-066-070>072-190000-
SOUTHEAST WISCONSIN
  
CITY           SKY/WX    TMP DP  RH WIND       PRES   REMARKS
MILWAUKEE      PTSUNNY   79  62  56 SW10      29.84R HX  80           
WAUKESHA       PTSUNNY   75  63  64 W9        29.86R                  
MILWAUKEE/TIMM PTSUNNY   79  57  47 W10G16    29.85R HX  80           
RACINE         FAIR      79  64  60 W10       29.86S HX  81           
KENOSHA        FAIR      79  67  66 W9        29.85S HX  81           
FOND DU LAC    FAIR      78  62  57 W8        29.83R HX  80           
SHEBOYGAN      PTSUNNY   76  63  64 W6        29.83R                  
WEST BEND      FAIR      73  63  68 W9        29.85R                  
JUNEAU         FAIR      74  62  66 CALM      29.87R                  
$$

LSZ147-162-190000-
LAKE SUPERIOR
  
STATION/POSITION TIME  TEMP    WIND        PRES    WAVE
                       AIR SEA DIR/SP/G            HT/PER
                 (UTC) (F)     (DEG/KT/KT) (MB)    (FT/S)
W MID LAKE BUOY  2250   65 63  250/ 10/ 12 1006.7R   2/ 4
DEVILS ISLAND    2200   70     260/  7/  9 1007.4R
SAXON HARBOR     2230   72     270/  6/ 10 1008.1R
$$
 
LMZ867-665-643>646-190000-
LAKE MICHIGAN
  
STATION/POSITION TIME  TEMP    WIND        PRES    WAVE
                       AIR SEA DIR/SP/G            HT/PER
                 (UTC) (F)     (DEG/KT/KT) (MB)    (FT/S)
S GREEN BAY BUOY 2230   79 69  250/ 16/ 17 1007.7R
N MID LAKE BUOY  2250   72 70  210/ 16/ 19 1006.2R   4/ 6
NORTHPORT PIER   2240   77     250/  3/  6 1005.8R
KEWAUNEE LAKESHO 2230   76     260/  7/ 14 1007.6R
SHEBOYGAN LAKESH 2300   76     270/ 10/ 13 1009.9R
PORT WASHINGTON  2240   79     270/  7/ 11 1010.8R
S MID LAKE BUOY  2250   74 73  240/  8/ 10 1010.6S   2/ 5
KENOSHA   LAKESH 2300   78     270/ 10/ 13 1010.5
$$

TC  - TEMPERATURE IN CELSIUS
VSB - VISIBILITY IN STATUTE MILES
WCI - WIND CHILL INDEX
HX  - HEAT INDEX